GW2905 Weather Reports


Display with metric or nautical units.
time (UTC)temp
F
wind
direction
speed
MPH
gust
MPH
rain 1hr
in
rain 24hr
in
rain mn
in
humidity
%
barometer
mb
20260505163056 52 177 0.0 1.0 0.00 0.01 0.01 92 1015.6
20260505161614 52 0 0.0 1.0 0.00 0.01 0.01 94 1015.5
20260505153054 51 0 0.0 1.0 0.01 0.01 0.01 95 1015.3
20260505151551 51 0 0.0 1.0 0.01 0.01 0.01 95 1015.3
20260505140104 51 0 0.0 2.0 0.00 0.00 0.00 94 1014.7
20260505124555 52 0 0.0 2.0 0.00 0.00 0.00 93 1014.5
20260505123102 52 0 0.0 2.0 0.00 0.00 0.00 92 1014.4
20260505121600 52 0 0.0 2.0 0.00 0.00 0.00 92 1014.4
20260505120053 52 0 0.0 2.0 0.00 0.00 0.00 92 1014.2
20260505114551 52 0 0.0 2.0 0.00 0.00 0.00 91 1014.2
20260505113108 52 0 0.0 2.0 0.00 0.00 0.00 91 1014.2
20260505111552 52 0 0.0 1.0 0.00 0.00 0.00 91 1014.1
20260505101555 53 0 0.0 2.0 0.00 0.00 0.00 90 1013.7
20260505100057 53 0 0.0 1.0 0.00 0.00 0.00 90 1013.7
20260505094550 53 292 0.0 2.0 0.00 0.00 0.00 90 1013.8
20260505093054 53 282 0.0 2.0 0.00 0.00 0.00 90 1013.6
20260505091614 53 0 0.0 2.0 0.00 0.00 0.00 90 1013.4
20260505090051 53 0 0.0 2.0 0.00 0.00 0.00 90 1013.3
20260505084553 53 0 0.0 1.0 0.00 0.00 0.00 90 1013.2
20260505083103 53 0 0.0 1.0 0.00 0.00 0.00 90 1013.1
20260505081604 53 0 0.0 2.0 0.00 0.00 0.00 89 1013.3
20260505080108 53 0 0.0 2.0 0.00 0.00 0.00 89 1013.1
20260505074602 53 0 0.0 3.0 0.00 0.00 0.00 88 1013.0
20260505073056 53 0 0.0 0.0 0.00 0.00 0.00 88 1012.8
20260505071603 54 0 0.0 0.0 0.00 0.00 0.00 87 1012.7
20260505070056 55 0 0.0 0.0 0.00 0.00 0.00 85 1012.4
20260505064555 56 0 0.0 2.0 0.00 0.00 0.00 83 1012.2
20260505063119 57 0 0.0 2.0 0.00 0.00 0.00 81 1012.0
20260505061623 58 0 0.0 3.0 0.00 0.00 0.00 80 1011.7
20260505054606 58 279 0.0 2.0 0.00 0.00 0.00 82 1011.6
20260505053051 58 311 0.0 2.0 0.00 0.00 0.00 82 1011.5
20260505051610 59 0 0.0 2.0 0.00 0.00 0.00 80 1011.5
20260505041559 62 332 0.0 2.0 0.00 0.00 0.00 75 1011.0
20260505040100 63 0 0.0 2.0 0.00 0.00 0.00 76 1010.8
20260505034553 65 79 0.0 1.0 0.00 0.00 0.00 74 1010.6
20260505033056 66 0 0.0 3.0 0.00 0.00 0.00 72 1010.4
20260505031559 67 0 0.0 1.0 0.00 0.00 0.00 71 1010.1
20260505030052 68 0 0.0 1.0 0.00 0.00 0.00 70 1010.0
20260505024553 68 0 0.0 2.0 0.00 0.00 0.00 69 1009.8
20260505023051 69 0 0.0 4.0 0.00 0.00 0.00 67 1009.9
20260505021552 69 121 0.0 4.0 0.00 0.00 0.00 67 1009.8
20260505014554 70 127 0.0 4.0 0.00 0.00 0.00 67 1009.9
20260505013104 70 0 0.0 7.0 0.00 0.00 0.00 67 1009.9
20260505011553 70 149 1.0 4.0 0.00 0.00 0.00 67 1009.9
20260505010112 70 163 1.0 6.0 0.00 0.00 0.00 67 1010.0
20260505004553 70 228 1.0 5.0 0.00 0.00 0.00 67 1010.2
20260505003058 70 109 1.0 4.0 0.00 0.00 0.00 66 1010.2
20260505001547 70 170 1.0 6.0 0.00 0.00 0.00 63 1010.3
20260505000057 71 196 2.0 6.0 0.00 0.00 0.00 63 1010.4
20260504234550 71 185 1.0 4.0 0.00 0.00 0.00 62 1010.5
20260504233107 71 0 2.0 8.0 0.00 0.00 0.00 62 1010.3
20260504231552 71 192 1.0 5.0 0.00 0.00 0.00 64 1010.7
20260504230057 70 228 1.0 5.0 0.00 0.00 0.00 61 1010.9
20260504224552 70 175 1.0 4.0 0.00 0.00 0.00 63 1010.8
20260504223055 69 0 0.0 4.0 0.00 0.00 0.00 63 1011.1
20260504221556 69 171 1.0 4.0 0.00 0.00 0.00 65 1011.3
20260504220051 68 159 1.0 4.0 0.00 0.00 0.00 65 1011.5
20260504214556 67 111 1.0 7.0 0.00 0.00 0.00 67 1011.4
20260504213052 66 160 2.0 6.0 0.00 0.00 0.00 66 1011.6
20260504211551 66 87 1.0 6.0 0.00 0.00 0.00 69 1011.8
20260504210105 65 140 2.0 6.0 0.00 0.00 0.00 71 1012.1
20260504204559 64 319 1.0 4.0 0.00 0.00 0.00 67 1012.2
20260504203103 64 103 1.0 6.0 0.00 0.00 0.00 71 1012.4
20260504201555 63 146 1.0 7.0 0.00 0.00 0.00 75 1012.4
20260504200052 62 195 2.0 7.0 0.00 0.00 0.00 73 1012.6
20260504194555 62 91 1.0 4.0 0.00 0.00 0.00 74 1012.7
20260504193051 61 139 0.0 5.0 0.00 0.00 0.00 76 1012.7
20260504191550 60 148 2.0 7.0 0.00 0.00 0.00 77 1012.9
20260504190112 58 194 1.0 6.0 0.00 0.00 0.00 80 1013.0
20260504184550 58 223 1.0 6.0 0.00 0.00 0.00 80 1013.3
20260504183051 58 143 1.0 5.0 0.00 0.00 0.00 82 1013.3
20260504181555 56 348 1.0 4.0 0.00 0.00 0.00 81 1013.0
20260504180051 56 296 1.0 4.0 0.00 0.00 0.00 82 1013.1
20260504174553 55 99 2.0 6.0 0.00 0.00 0.00 84 1013.2
20260504173057 55 88 2.0 6.0 0.00 0.00 0.00 84 1013.1
20260504171553 55 101 1.0 4.0 0.00 0.00 0.00 84 1012.9